Location: Birach
(48.3504°N, 8.0800°E)
Time: 07:13:46
(UTC+00:00)

Daily predictions for brighter satellites

Satellite Brightness Start Highest point End
(mag) Time Altitude Azimuth Time Altitude Azimuth Time Altitude Azimuth
NOSS 2-1 (D) 4.4 20:03:16 10° NNW 20:07:28 53° NE 20:13:19 10° ESE
S3M 4.1 20:02:45 10° S 20:08:58 85° W 20:15:09 10° N
Cosmos 1697 Rocket 4.4 20:06:13 10° N 20:10:34 22° NE 20:14:54 10° E
Cosmos 1953 4.1 20:07:05 10° NNW 20:10:36 31° W 20:14:06 10° SSW
Meteor 2-10 Rocket 3.9 20:06:29 10° NNW 20:11:29 64° W 20:16:25 10° S
Cosmos 2369 Rocket 4.4 20:07:28 10° NW 20:11:36 21° W 20:15:45 10° SSW
SPOT 5 3.4 20:07:59 10° SE 20:12:04 37° ENE 20:16:04 10° N
H-2A R/B 2.5 20:08:54 10° N 20:13:17 72° WNW 20:17:44 10° SSW
Tiangong 2.5 20:12:51 10° WSW 20:15:27 23° S 20:18:03 10° SE
Cosmos 1975 Rocket 3.1 20:11:49 10° S 20:16:16 74° E 20:20:42 10° NNE
CARTOSAT-1 3.6 20:13:39 10° SSE 20:17:57 78° ENE 20:22:17 10° N
IRAS Rocket 4.3 20:14:22 10° NNE 20:19:59 66° ESE 20:25:30 10° S
Cosmos 1656 4.4 20:15:45 10° NNW 20:20:56 42° NE 20:26:07 10° SE
Cosmos 2084 3.4 20:17:24 10° SSW 20:21:05 46° SE 20:24:49 10° NE
USA 276 2.6 20:26:12 10° SW 20:28:57 34° SSE 20:31:44 10° E
Spot 2 Rocket 3.7 20:26:07 10° SSE 20:31:07 62° ENE 20:36:10 10° N
ATLAS 2AS CENTAUR R/B 2.8 20:24:10 10° NW 20:31:23 87° NE 20:37:59 10° SE
Cosmos 1544 Rocket 3.6 20:29:05 10° N 20:33:25 69° E 20:37:43 10° SSE
Meteor 1-24 Rocket 3.6 20:28:29 10° S 20:33:46 79° E 20:39:13 10° NNE
MetOp-B 4.5 20:28:52 10° S 20:34:12 68° WSW 20:39:34 10° NNW
Lacrosse 5 1.9 20:30:51 10° NW 20:36:00 88° SW 20:40:57 11° SE
Cosmos 1371 Rocket 4.1 20:30:55 10° SSW 20:36:09 90° SW 20:41:30 10° NNE
USA 234 4.0 20:30:20 10° E 20:36:38 52° NNE 20:42:57 10° NW
Cosmos 1452 Rocket 4.4 20:32:26 10° SSE 20:36:58 30° E 20:41:31 10° NE
X-37B 1.1 20:36:21 10° SW 20:38:52 30° SSE 20:41:25 10° ESE
Cosmos 1833 Rocket 4.0 20:36:05 10° SSE 20:40:10 21° E 20:44:19 10° NE
Terra 2.2 20:38:02 11° SE 20:42:28 52° ENE 20:47:07 10° N
FALCON 9 DEB 4.3 20:42:01 10° W 20:45:09 43° NNW 20:48:18 10° ENE
Cosmos 2184 Rocket 4.3 20:40:12 10° N 20:46:15 54° ENE 20:51:50 12° SSE
Resurs 01 Rocket 3.5 20:45:30 10° SSW 20:49:17 27° W 20:53:05 10° NW
Cosmos 724 4.3 20:46:21 10° SSW 20:52:02 59° ESE 20:57:44 10° NE
Helios 1A Rocket 2.9 20:51:31 12° SSE 20:55:18 86° WSW 20:59:26 10° NNW
CZ-4B R/B 3.5 20:53:07 10° NNW 20:55:31 24° WNW 20:57:53 10° SW
Cosmos 1624 Rocket 4.4 20:51:17 10° SSW 20:56:30 68° WNW 21:01:43 10° NNE
Lacrosse 5 rocket 2.2 20:55:29 10° WNW 20:59:01 34° SW 21:01:56 15° SSE
Cosmos 1271 Rocket 3.1 20:56:46 10° NNW 21:00:43 63° W 21:04:25 11° S
Cosmos 2082 Rocket 4.0 21:01:00 11° ESE 21:03:11 14° E 21:05:59 10° ENE
SPOT 3 Rocket 4.4 21:00:19 10° S 21:05:19 48° W 21:10:22 10° NNW
NOSS 2-1 (E) 4.2 21:01:27 10° NW 21:06:03 72° SW 21:11:18 16° SSE
ERS-1 Rocket 3.1 21:03:41 12° S 21:08:20 75° WSW 21:13:24 10° NNW
RESURS DK-1 2.8 21:06:05 10° NNW 21:10:09 53° ENE 21:13:07 17° SE
CZ-2C R/B 3.7 21:12:01 10° NNE 21:16:40 85° ESE 21:21:11 10° SSW
ARIANE 5 R/B 2.6 21:18:10 18° SSE 21:21:32 90° SSW 21:26:01 10° NNW
Cosmos 1741 Rocket 4.0 21:16:37 10° NNW 21:21:58 83° ENE 21:25:51 19° SSE
Cosmos 2344 4.4 21:19:02 10° NW 21:27:40 71° NE 21:38:57 12° SE
SL-8 R/B 3.6 21:23:57 10° W 21:28:46 81° SSW 21:33:28 11° ESE
GP-B 4.1 21:27:36 10° NNE 21:31:37 32° E 21:33:53 20° SE
Cosmos 1455 3.9 21:28:30 10° NNW 21:31:45 27° W 21:35:01 10° SSW
Cosmos 2074 Rocket 4.2 21:28:34 10° NNW 21:34:49 68° W 21:40:09 14° S
ASTEX 1 3.8 21:34:58 10° NNE 21:39:50 49° E 21:42:46 23° SSE
COSMOS 2406 3.8 21:37:53 20° SSE 21:41:14 38° ESE 21:46:31 10° NE
Cosmos 2369 4.2 21:38:24 10° NNW 21:44:01 52° NE 21:48:09 18° SE
USA 267 3.2 21:37:59 10° ENE 21:44:31 68° SE 21:51:02 10° SW
SL-16 R/B 4.3 21:40:46 10° N 21:44:47 19° NE 21:48:46 10° E
Cosmos 2228 3.4 21:45:14 10° NNW 21:49:24 57° W 21:52:05 21° SSW
SPOT 5 4.4 21:46:36 10° SSW 21:50:16 25° W 21:53:53 10° NW
Tiangong 3.5 21:50:01 10° SW 21:50:37 12° SW 21:50:37 12° SW
Cosmos 1850 Rocket 4.4 21:46:58 10° NNW 21:52:03 54° WSW 21:55:21 21° S
Nadezhda 1 Rocket 4.0 21:47:09 15° S 21:52:21 86° W 21:58:28 10° N
Cosmos 1980 Rocket 2.7 21:47:04 10° NNW 21:52:39 53° NE 21:56:37 19° SE
Cosmos 1606 Rocket 3.5 21:50:10 10° NNW 21:54:30 79° W 21:56:56 26° S
Cosmos 1703 4.2 21:51:22 12° SSW 21:54:44 44° WNW 21:58:27 10° N
Cosmos 1697 Rocket 2.7 21:49:37 10° NNW 21:55:16 84° WSW 21:58:44 24° SSE
Cosmos 1892 3.6 21:55:58 27° SE 21:57:06 33° E 22:00:31 10° NNE
SJ 16-02 4.0 21:56:32 10° NNE 21:57:50 11° NE 21:59:08 10° ENE
Cosmos 2154 Rocket 4.3 21:53:28 10° NNW 21:59:37 63° W 22:04:14 18° S
Cosmos 2084 Rocket 3.8 21:56:28 10° NW 22:00:17 53° NE 22:02:44 21° ESE
Meteor 1-11 4.5 21:57:30 24° SSE 22:00:45 54° E 22:06:11 10° NNE
USA 276 2.1 22:01:32 10° W 22:04:32 73° NNW 22:07:32 10° ENE
Cosmos 1328 3.9 22:04:05 25° SSW 22:06:23 78° W 22:10:25 10° N
Cosmos 1331 Rocket 4.1 22:04:07 14° SSW 22:08:42 83° WNW 22:14:03 10° NNE
X-37B 1.7 22:11:23 10° WSW 22:12:57 26° SW 22:12:57 26° SW
Cosmos 1408 2.4 22:15:25 42° SSE 22:16:25 67° E 22:19:51 10° NNE
Lacrosse 5 3.5 22:14:41 10° WNW 22:18:23 20° SW 22:20:08 17° SSW
SAR-Lupe-4 4.2 22:15:27 10° N 22:18:57 53° WNW 22:21:00 22° SW
Cosmos 1726 Rocket 3.9 22:15:02 10° NNW 22:19:15 56° W 22:21:23 27° SSW
USA 234 3.2 22:14:25 18° SE 22:19:27 79° SW 22:26:04 10° NW
Terra 3.8 22:16:56 10° SW 22:20:31 21° W 22:24:09 10° NW
ATLAS 2AS CENTAUR R/B 4.2 22:16:13 10° WNW 22:21:23 23° WSW 22:25:25 13° SSW
Cosmos 1833 Rocket 3.0 22:17:58 10° SW 22:23:33 68° WNW 22:29:11 10° NNE
Cosmos 2322 Rocket 4.1 22:19:37 10° N 22:24:13 25° NE 22:28:49 10° E
Cosmos 1867 3.7 22:22:19 10° NW 22:27:49 71° NE 22:31:18 23° SE
Cosmos 2278 4.1 22:23:07 10° NNW 22:28:48 60° ENE 22:32:24 23° SE
ATLAS 5 CENTAUR R/B 3.0 22:30:25 17° ESE 22:30:25 17° ESE 22:32:36 10° ENE
SL-8 Rocket 4.0 22:23:53 10° N 22:30:11 89° W 22:33:46 27° S
ALOS 2 2.8 22:32:45 32° SE 22:34:40 62° ENE 22:39:01 10° N
Cosmos 1302 Rocket 3.9 22:31:55 25° SSW 22:35:01 85° ESE 22:40:15 10° NNE
Cosmos 2218 Rocket 4.0 22:35:49 10° N 22:42:16 87° W 22:45:53 28° S
Cosmos 2366 rocket 4.0 22:39:40 10° N 22:46:01 83° W 22:49:34 28° S
Cosmos 2082 Rocket 2.1 22:42:49 24° SSW 22:46:22 82° ESE 22:52:06 10° NNE
Cosmos 1602 Rocket 4.1 22:45:32 33° SE 22:46:52 43° E 22:50:58 10° NNE
RESURS DK-1 4.3 22:44:57 10° WNW 22:47:45 18° WSW 22:48:58 16° SW
H-2A R/B 3.5 22:45:31 10° NNE 22:49:43 70° ESE 22:51:09 39° S
Cosmos 2341 Rocket 4.4 22:44:14 10° NNW 22:50:25 56° W 22:54:07 24° SSW
Cosmos 2058 Rocket 3.8 22:49:03 10° NNW 22:53:14 43° W 22:55:04 28° SW
Spot 4 4.1 22:52:43 32° SSW 22:54:44 56° W 22:59:29 10° NNW
Cosmos 1825 2.1 22:58:50 45° SSW 22:59:53 80° W 23:03:39 10° N
Cosmos 2360 Rocket 3.8 22:58:55 10° NNW 23:03:53 30° NE 23:08:50 10° ESE
Cosmos 968 Rocket 4.2 23:00:24 10° NW 23:05:16 42° WSW 23:07:22 28° SSW
ERS-2 2.4 23:01:50 10° NNE 23:05:19 48° E 23:05:53 44° SE
Cosmos-2242 3.2 23:02:33 10° N 23:06:47 60° ENE 23:08:16 37° SE
SL-8 R/B 4.3 23:06:37 10° W 23:10:59 35° SSW 23:11:22 35° SSW
Cosmos 1626 Rocket 3.6 23:10:22 36° SSW 23:12:02 70° W 23:16:23 10° N
Cosmos 1869 3.8 23:12:25 10° NNW 23:16:08 45° W 23:17:08 36° SW
Cosmos 1606 3.1 23:13:23 10° N 23:17:10 53° ENE 23:18:18 38° SE
Cosmos 2058 3.9 23:16:21 29° SE 23:17:32 35° E 23:21:23 10° NNE
BREEZE-M DEB (TANK) 4.0 23:14:12 10° WNW 23:17:45 88° S 23:32:46 10° ESE
Cosmos 1825 Rocket 4.1 23:22:58 34° SE 23:24:17 46° E 23:28:27 10° NNE
ADEOS Rocket 3.6 23:20:28 28° S 23:24:30 63° W 23:32:08 10° NNW
COSMOS 2406 4.3 23:20:03 10° SW 23:25:30 42° NW 23:30:58 10° NNE
Cosmos 1633 2.4 23:25:15 56° SSW 23:25:53 77° W 23:29:23 10° N
USA 267 3.9 23:21:06 10° NE 23:27:28 56° NNW 23:33:49 10° W
SL-16 R/B 2.2 23:24:07 10° NNW 23:29:50 79° ENE 23:33:07 26° SE
Meteor 2-20 4.4 23:32:16 30° SSW 23:35:29 82° W 23:41:37 10° N
Cosmos 1980 Rocket 3.4 23:31:34 10° NW 23:36:21 28° WSW 23:38:21 23° SW
SJ 16-02 1.5 23:32:51 10° NNW 23:37:17 68° ENE 23:39:13 33° SE
Cosmos 1486 Rocket 4.4 23:32:39 10° NNW 23:37:40 48° WSW 23:39:34 33° SSW
USA 276 2.2 23:37:22 10° WNW 23:40:22 67° N 23:43:22 10° E
Meteor 2-2 Rocket 4.5 23:36:31 10° N 23:42:32 74° ENE 23:45:55 27° SSE
Cosmos 1821 Rocket 4.1 23:36:35 10° NNW 23:42:47 64° W 23:45:54 30° SSW
Cosmos 2219 Rocket 4.0 23:39:25 10° NNW 23:44:16 28° NE 23:49:07 10° ESE
Cosmos 1340 Rocket 3.3 23:48:44 38° SE 23:49:45 48° E 23:53:34 10° NNE
CZ-2D R/B 4.2 23:47:21 10° NE 23:50:25 16° E 23:53:29 10° SE
